Flag for France Weather past 2 weeks in Boulogne-Billancourt, France

Now
77 °F

Sunny.


Feels Like: 79 °F
Forecast: 58 / 71 °F
Wind: 13 mph from West

Location: Paris-Orly

Current Time: Jul 7, 2015 at 3:44:17 PM

Latest Report: Jul 7, 2015 at 3:00 PM


Visibility: 10 mi

Pressure: 29.89 "Hg

Humidity: 51%

Dew point: 57 °F

Location of Boulogne-BillancourtLocation

Historic Weather in Boulogne-Billancourt — Graph

°F

Boulogne-Billancourt temperature yesterday

Maximum temperature yesterday: 88 °F (at 6:00 PM)
Minimum temperature yesterday: 57 °F (at 6:30 AM)
Average temperature yesterday: 73 °F

Past Weeks' High & Low Weather Summary

 TemperatureHumidityPressure
High102 °F (Jul 1, 4:30 PM)100% (Jun 23, 3:00 AM)30.24 "Hg (Jun 23, 3:00 AM)
Low46 °F (Jun 23, 5:30 AM)16% (Jun 30, 4:00 PM)29.83 "Hg (Jun 22, 4:00 PM)
Average74 °F54%30.08 "Hg
* Reported Jun 22 2:00 PM — Jul 7 2:30 PM, Boulogne-Billancourt, Weather by CustomWeather, © 2015

Note: Actual official high and low records may vary slightly from our data, if they occured in-between our weather recording intervals... More about our weather records

Advertising

Boulogne-Billancourt weather history for previous 24 hours

 ConditionsComfort  
Time TempWeatherWind HumidityBarometerVisibility
2:30 PM
Tue, Jul 7
77 °FPassing clouds.13 mph51%29.89 "HgN/A
2:00 PM79 °FSunny.13 mph48%29.89 "Hg10 mi
1:30 PM81 °FPassing clouds.12 mph42%29.89 "HgN/A
1:00 PM81 °FPassing clouds.13 mph42%29.89 "HgN/A
12:30 PM81 °FBroken clouds.13 mph39%29.89 "HgN/A
12:00 PM82 °FBroken clouds.8 mph37%29.86 "HgN/A
11:30 AM81 °FPassing clouds.9 mph37%29.89 "HgN/A
11:00 AM77 °FSunny.10 mph39%29.89 "Hg10 mi
10:30 AM79 °FSunny.13 mph42%29.89 "Hg10 mi
10:00 AM77 °FSunny.9 mph42%29.89 "Hg10 mi
9:30 AM79 °FPassing clouds.6 mph39%29.89 "HgN/A
9:00 AM77 °FPassing clouds.5 mph44%29.89 "HgN/A
8:30 AM73 °FSunny.1 mph50%29.89 "Hg10 mi
8:00 AM72 °FSunny.3 mph53%29.89 "Hg10 mi
7:30 AM70 °FSunny.3 mph60%29.89 "Hg10 mi
7:00 AM64 °FSunny.3 mph68%29.89 "Hg10 mi
6:30 AM63 °FClear.3 mph68%29.89 "Hg10 mi
6:00 AM64 °FClear.3 mph64%29.89 "Hg10 mi
5:30 AM64 °FClear.2 mph64%29.92 "Hg10 mi
5:00 AM64 °FClear.2 mph64%29.92 "Hg10 mi
4:30 AM64 °FClear.6 mph64%29.92 "Hg10 mi
4:00 AM64 °FClear.5 mph64%29.92 "Hg10 mi
3:30 AM66 °FClear.3 mph64%29.95 "Hg10 mi
3:00 AM66 °FClear.3 mph60%29.95 "Hg10 mi
2:30 AM68 °FClear.3 mph56%29.95 "Hg10 mi
2:00 AM68 °FClear.3 mph60%29.95 "Hg10 mi
1:30 AM70 °FPassing clouds.3 mph57%29.98 "HgN/A
1:00 AM70 °FClear.2 mph50%29.98 "Hg10 mi
12:30 AM72 °FClear.2 mph47%29.98 "Hg10 mi
12:00 AM72 °FClear.No wind50%29.98 "Hg10 mi
11:00 PM
Mon, Jul 6
73 °FClear.3 mph44%29.98 "Hg10 mi
10:30 PM75 °FSunny.5 mph39%29.98 "Hg10 mi
10:00 PM79 °FSunny.5 mph34%29.98 "Hg10 mi
9:30 PM82 °FSunny.5 mph30%29.98 "Hg10 mi
9:00 PM84 °FPassing clouds.5 mph29%30.01 "HgN/A
8:30 PM86 °FPassing clouds.3 mph25%30.01 "HgN/A
8:00 PM88 °FPassing clouds.6 mph24%30.01 "HgN/A
7:30 PM88 °FPassing clouds.6 mph24%30.01 "HgN/A
7:00 PM88 °FSunny.2 mph24%30.01 "Hg10 mi
6:30 PM88 °FSunny.3 mph24%30.04 "Hg10 mi
6:00 PM88 °FPassing clouds.7 mph24%30.04 "HgN/A
5:30 PM86 °FPassing clouds.7 mph27%30.04 "HgN/A
5:00 PM86 °FSunny.6 mph27%30.07 "Hg10 mi
4:30 PM86 °FPassing clouds.8 mph27%30.07 "HgN/A
4:00 PM86 °FPassing clouds.7 mph29%30.07 "HgN/A
3:30 PM84 °FPassing clouds.7 mph31%30.09 "HgN/A
3:00 PM84 °FSunny.5 mph33%30.09 "Hg10 mi
Weather by CustomWeather, © 2015

See weather overviewHow to use our weather pages